Year,Month,Day,Hour,Minute,Value (Times are PST for temperature in C)
2014,04,10,00,00,4.90
2014,04,10,00,01,4.80
2014,04,10,00,02,4.80
2014,04,10,00,03,4.80
2014,04,10,00,04,4.70
2014,04,10,00,05,4.70
2014,04,10,00,06,4.70
2014,04,10,00,07,4.80
2014,04,10,00,08,4.80
2014,04,10,00,09,4.80
2014,04,10,00,10,4.90
2014,04,10,00,11,4.90
2014,04,10,00,12,4.90
2014,04,10,00,13,5.00
2014,04,10,00,14,5.10
2014,04,10,00,15,5.10
2014,04,10,00,16,5.10
2014,04,10,00,17,5.10
2014,04,10,00,18,5.00
2014,04,10,00,19,4.90
2014,04,10,00,20,4.90
2014,04,10,00,21,4.90
2014,04,10,00,22,4.90
2014,04,10,00,23,4.90
2014,04,10,00,24,4.90
2014,04,10,00,25,4.90
2014,04,10,00,26,4.90
2014,04,10,00,27,4.90
2014,04,10,00,28,4.90
2014,04,10,00,29,4.90
2014,04,10,00,30,4.90
2014,04,10,00,31,4.90
2014,04,10,00,32,4.90
2014,04,10,00,33,4.90
2014,04,10,00,34,4.90
2014,04,10,00,35,4.80
2014,04,10,00,36,4.80
2014,04,10,00,37,4.80
2014,04,10,00,38,4.80
2014,04,10,00,39,4.70
2014,04,10,00,40,4.70
2014,04,10,00,41,4.70
2014,04,10,00,42,4.70
2014,04,10,00,43,4.60
2014,04,10,00,44,4.60
2014,04,10,00,45,4.60
2014,04,10,00,46,4.50
2014,04,10,00,47,4.40
2014,04,10,00,48,4.40
2014,04,10,00,49,4.30
2014,04,10,00,50,4.30
2014,04,10,00,51,4.30
2014,04,10,00,52,4.20
2014,04,10,00,53,4.20
2014,04,10,00,54,4.20
2014,04,10,00,55,4.20
2014,04,10,00,56,4.20
2014,04,10,00,57,4.20
2014,04,10,00,58,4.20
2014,04,10,00,59,4.20
2014,04,10,01,00,4.20
2014,04,10,01,01,4.30
2014,04,10,01,02,4.30
2014,04,10,01,03,4.40
2014,04,10,01,04,4.40
2014,04,10,01,05,4.40
2014,04,10,01,06,4.40
2014,04,10,01,07,4.40
2014,04,10,01,08,4.40
2014,04,10,01,09,4.50
2014,04,10,01,10,4.50
2014,04,10,01,11,4.60
2014,04,10,01,12,4.60
2014,04,10,01,13,4.80
2014,04,10,01,14,4.90
2014,04,10,01,15,5.00
2014,04,10,01,16,5.10
2014,04,10,01,17,5.10
2014,04,10,01,18,5.10
2014,04,10,01,19,5.10
2014,04,10,01,20,5.20
2014,04,10,01,21,5.20
2014,04,10,01,22,5.20
2014,04,10,01,23,5.10
2014,04,10,01,24,5.10
2014,04,10,01,25,5.10
2014,04,10,01,26,5.10
2014,04,10,01,27,5.10
2014,04,10,01,28,5.10
2014,04,10,01,29,5.10
2014,04,10,01,30,5.10
2014,04,10,01,31,5.10
2014,04,10,01,32,5.00
2014,04,10,01,33,4.90
2014,04,10,01,34,4.90
2014,04,10,01,35,4.90
2014,04,10,01,36,4.90
2014,04,10,01,37,4.90
2014,04,10,01,38,4.90
2014,04,10,01,39,4.90
2014,04,10,01,40,4.90
2014,04,10,01,41,4.90
2014,04,10,01,42,4.90
2014,04,10,01,43,4.80
2014,04,10,01,44,4.80
2014,04,10,01,45,4.80
2014,04,10,01,46,4.70
2014,04,10,01,47,4.70
2014,04,10,01,48,4.60
2014,04,10,01,49,4.60
2014,04,10,01,50,4.60
2014,04,10,01,51,4.60
2014,04,10,01,52,4.60
2014,04,10,01,53,4.60
2014,04,10,01,54,4.60
2014,04,10,01,55,4.60
2014,04,10,01,56,4.60
2014,04,10,01,57,4.60
2014,04,10,01,58,4.60
2014,04,10,01,59,4.70
2014,04,10,02,00,4.80
2014,04,10,02,01,4.90
2014,04,10,02,02,5.00
2014,04,10,02,03,5.10
2014,04,10,02,04,5.10
2014,04,10,02,05,5.20
2014,04,10,02,06,5.30
2014,04,10,02,07,5.40
2014,04,10,02,08,5.50
2014,04,10,02,09,5.60
2014,04,10,02,10,5.60
2014,04,10,02,11,5.70
2014,04,10,02,12,5.70
2014,04,10,02,13,5.70
2014,04,10,02,14,5.70
2014,04,10,02,15,5.70
2014,04,10,02,16,5.70
2014,04,10,02,17,5.70
2014,04,10,02,18,5.70
2014,04,10,02,19,5.70
2014,04,10,02,20,5.70
2014,04,10,02,21,5.60
2014,04,10,02,22,5.60
2014,04,10,02,23,5.60
2014,04,10,02,24,5.60
2014,04,10,02,25,5.60
2014,04,10,02,26,5.50
2014,04,10,02,27,5.50
2014,04,10,02,28,5.50
2014,04,10,02,29,5.40
2014,04,10,02,30,5.40
2014,04,10,02,31,5.30
2014,04,10,02,32,5.30
2014,04,10,02,33,5.30
2014,04,10,02,34,5.20
2014,04,10,02,35,5.10
2014,04,10,02,36,5.10
2014,04,10,02,37,5.10
2014,04,10,02,38,4.90
2014,04,10,02,39,4.90
2014,04,10,02,40,4.90
2014,04,10,02,41,4.80
2014,04,10,02,42,4.70
2014,04,10,02,43,4.70
2014,04,10,02,44,4.60
2014,04,10,02,45,4.60
2014,04,10,02,46,4.60
2014,04,10,02,47,4.60
2014,04,10,02,48,4.50
2014,04,10,02,49,4.50
2014,04,10,02,50,4.40
2014,04,10,02,51,4.30
2014,04,10,02,52,4.20
2014,04,10,02,53,4.00
2014,04,10,02,54,4.00
2014,04,10,02,55,3.90
2014,04,10,02,56,3.80
2014,04,10,02,57,3.80
2014,04,10,02,58,3.70
2014,04,10,02,59,3.70
2014,04,10,03,00,3.70
2014,04,10,03,01,3.70
2014,04,10,03,02,3.70
2014,04,10,03,03,3.80
2014,04,10,03,04,3.80
2014,04,10,03,05,3.80
2014,04,10,03,06,3.70
2014,04,10,03,07,3.50
2014,04,10,03,08,3.30
2014,04,10,03,09,3.20
2014,04,10,03,10,3.10
2014,04,10,03,11,3.00
2014,04,10,03,12,2.90
2014,04,10,03,13,2.90
2014,04,10,03,14,2.80
2014,04,10,03,15,2.80
2014,04,10,03,16,2.70
2014,04,10,03,17,2.70
2014,04,10,03,18,2.60
2014,04,10,03,19,2.60
2014,04,10,03,20,2.50
2014,04,10,03,21,2.50
2014,04,10,03,22,2.50
2014,04,10,03,23,2.50
2014,04,10,03,24,2.50
2014,04,10,03,25,2.50
2014,04,10,03,26,2.50
2014,04,10,03,27,2.50
2014,04,10,03,28,2.50
2014,04,10,03,29,2.60
2014,04,10,03,30,2.60
2014,04,10,03,31,2.60
2014,04,10,03,32,2.60
2014,04,10,03,33,2.60
2014,04,10,03,34,2.50
2014,04,10,03,35,2.50
2014,04,10,03,36,2.40
2014,04,10,03,37,2.30
2014,04,10,03,38,2.30
2014,04,10,03,39,2.20
2014,04,10,03,40,2.20
2014,04,10,03,41,2.20
2014,04,10,03,42,2.20
2014,04,10,03,43,2.20
2014,04,10,03,44,2.20
2014,04,10,03,45,2.20
2014,04,10,03,46,2.20
2014,04,10,03,47,2.20
2014,04,10,03,48,2.20
2014,04,10,03,49,2.20
2014,04,10,03,50,2.20
2014,04,10,03,51,2.20
2014,04,10,03,52,2.20
2014,04,10,03,53,2.20
2014,04,10,03,54,2.20
2014,04,10,03,55,2.20
2014,04,10,03,56,2.20
2014,04,10,03,57,2.20
2014,04,10,03,58,2.30
2014,04,10,03,59,2.30
2014,04,10,04,00,2.30
2014,04,10,04,01,2.40
2014,04,10,04,02,2.40
2014,04,10,04,03,2.50
2014,04,10,04,04,2.50
2014,04,10,04,05,2.50
2014,04,10,04,06,2.60
2014,04,10,04,07,2.60
2014,04,10,04,08,2.70
2014,04,10,04,09,2.70
2014,04,10,04,10,2.70
2014,04,10,04,11,2.80
2014,04,10,04,12,2.80
2014,04,10,04,13,2.90
2014,04,10,04,14,3.00
2014,04,10,04,15,3.10
2014,04,10,04,16,3.10
2014,04,10,04,17,3.10
2014,04,10,04,18,3.10
2014,04,10,04,19,3.10
2014,04,10,04,20,3.10
2014,04,10,04,21,3.10
2014,04,10,04,22,3.10
2014,04,10,04,23,3.10
2014,04,10,04,24,3.10
2014,04,10,04,25,3.10
2014,04,10,04,26,3.00
2014,04,10,04,27,2.90
2014,04,10,04,28,2.90
2014,04,10,04,29,2.90
2014,04,10,04,30,2.90
2014,04,10,04,31,2.80
2014,04,10,04,32,2.80
2014,04,10,04,33,2.80
2014,04,10,04,34,2.70
2014,04,10,04,35,2.70
2014,04,10,04,36,2.70
2014,04,10,04,37,2.60
2014,04,10,04,38,2.50
2014,04,10,04,39,2.50
2014,04,10,04,40,2.40
2014,04,10,04,41,2.40
2014,04,10,04,42,2.30
2014,04,10,04,43,2.30
2014,04,10,04,44,2.20
2014,04,10,04,45,2.20
2014,04,10,04,46,2.20
2014,04,10,04,47,2.20
2014,04,10,04,48,2.20
2014,04,10,04,49,2.20
2014,04,10,04,50,2.20
2014,04,10,04,51,2.20
2014,04,10,04,52,2.20
2014,04,10,04,53,2.10
2014,04,10,04,54,2.10
2014,04,10,04,55,2.10
2014,04,10,04,56,2.10
2014,04,10,04,57,2.10
2014,04,10,04,58,2.00
2014,04,10,04,59,2.00
2014,04,10,05,00,2.00
2014,04,10,05,01,2.00
2014,04,10,05,02,2.00
2014,04,10,05,03,1.90
2014,04,10,05,04,1.90
2014,04,10,05,05,1.90
2014,04,10,05,06,1.90
2014,04,10,05,07,1.90
2014,04,10,05,08,1.80
2014,04,10,05,09,1.80
2014,04,10,05,10,1.80
2014,04,10,05,11,1.80
2014,04,10,05,12,1.80
2014,04,10,05,13,1.80
2014,04,10,05,14,1.80
2014,04,10,05,15,1.80
2014,04,10,05,16,1.80
2014,04,10,05,17,1.80
2014,04,10,05,18,1.90
2014,04,10,05,19,1.90
2014,04,10,05,20,1.90
2014,04,10,05,21,1.90
2014,04,10,05,22,1.90
2014,04,10,05,23,1.90
2014,04,10,05,24,1.90
2014,04,10,05,25,1.90
2014,04,10,05,26,1.90
2014,04,10,05,27,1.90
2014,04,10,05,28,1.90
2014,04,10,05,29,1.90
2014,04,10,05,30,1.90
2014,04,10,05,31,1.80
2014,04,10,05,32,1.80
2014,04,10,05,33,1.80
2014,04,10,05,34,1.80
2014,04,10,05,35,1.80
2014,04,10,05,36,1.80
2014,04,10,05,37,1.80
2014,04,10,05,38,1.80
2014,04,10,05,39,1.80
2014,04,10,05,40,1.80
2014,04,10,05,41,1.80
2014,04,10,05,42,1.80
2014,04,10,05,43,1.80
2014,04,10,05,44,1.80
2014,04,10,05,45,1.80
2014,04,10,05,46,1.80
2014,04,10,05,47,1.80
2014,04,10,05,48,1.80
2014,04,10,05,49,1.90
2014,04,10,05,50,1.90
2014,04,10,05,51,1.90
2014,04,10,05,52,1.90
2014,04,10,05,53,2.00
2014,04,10,05,54,2.00
2014,04,10,05,55,2.00
2014,04,10,05,56,2.10
2014,04,10,05,57,2.10
2014,04,10,05,58,2.10
2014,04,10,05,59,2.10
2014,04,10,06,00,2.20
2014,04,10,06,01,2.20
2014,04,10,06,02,2.20
2014,04,10,06,03,2.20
2014,04,10,06,04,2.30
2014,04,10,06,05,2.30
2014,04,10,06,06,2.30
2014,04,10,06,07,2.30
2014,04,10,06,08,2.30
2014,04,10,06,09,2.20
2014,04,10,06,10,2.20
2014,04,10,06,11,2.20
2014,04,10,06,12,2.20
2014,04,10,06,13,2.20
2014,04,10,06,14,2.20
2014,04,10,06,15,2.20
2014,04,10,06,16,2.20
2014,04,10,06,17,2.20
2014,04,10,06,18,2.20
2014,04,10,06,19,2.20
2014,04,10,06,20,2.20
2014,04,10,06,21,2.20
2014,04,10,06,22,2.20
2014,04,10,06,23,2.20
2014,04,10,06,24,2.10
2014,04,10,06,25,2.10
2014,04,10,06,26,2.10
2014,04,10,06,27,2.10
2014,04,10,06,28,2.00
2014,04,10,06,29,2.00
2014,04,10,06,30,2.00
2014,04,10,06,31,2.00
2014,04,10,06,32,2.00
2014,04,10,06,33,2.00
2014,04,10,06,34,2.00
2014,04,10,06,35,2.00
2014,04,10,06,36,2.00
2014,04,10,06,37,2.00
2014,04,10,06,38,2.00
2014,04,10,06,39,2.00
2014,04,10,06,40,2.00
2014,04,10,06,41,2.00
2014,04,10,06,42,2.00
2014,04,10,06,43,2.00
2014,04,10,06,44,2.00
2014,04,10,06,45,2.00
2014,04,10,06,46,2.00
2014,04,10,06,47,2.00
2014,04,10,06,48,2.00
2014,04,10,06,49,2.00
2014,04,10,06,50,2.00
2014,04,10,06,51,2.00
2014,04,10,06,52,2.00
2014,04,10,06,53,2.00
2014,04,10,06,54,2.00
2014,04,10,06,55,2.00
2014,04,10,06,56,2.00
2014,04,10,06,57,2.00
2014,04,10,06,58,2.00
2014,04,10,06,59,2.00
2014,04,10,07,00,2.10
2014,04,10,07,01,2.10
2014,04,10,07,02,2.10
2014,04,10,07,03,2.10
2014,04,10,07,04,2.10
2014,04,10,07,05,2.20
2014,04,10,07,06,2.20
2014,04,10,07,07,2.20
2014,04,10,07,08,2.20
2014,04,10,07,09,2.20
2014,04,10,07,10,2.20
2014,04,10,07,11,2.30
2014,04,10,07,12,2.30
2014,04,10,07,13,2.30
2014,04,10,07,14,2.30
2014,04,10,07,15,2.40
2014,04,10,07,16,2.40
2014,04,10,07,17,2.50
2014,04,10,07,18,2.50
2014,04,10,07,19,2.50
2014,04,10,07,20,2.50
2014,04,10,07,21,2.50
2014,04,10,07,22,2.60
2014,04,10,07,23,2.60
2014,04,10,07,24,2.60
2014,04,10,07,25,2.60
2014,04,10,07,26,2.70
2014,04,10,07,27,2.70
2014,04,10,07,28,2.70
2014,04,10,07,29,2.70
2014,04,10,07,30,2.70
2014,04,10,07,31,2.70
2014,04,10,07,32,2.70
2014,04,10,07,33,2.80
2014,04,10,07,34,2.80
2014,04,10,07,35,2.80
2014,04,10,07,36,2.80
2014,04,10,07,37,2.90
2014,04,10,07,38,2.90
2014,04,10,07,39,2.90
2014,04,10,07,40,2.90
2014,04,10,07,41,3.10
2014,04,10,07,42,3.10
2014,04,10,07,43,3.10
2014,04,10,07,44,3.20
2014,04,10,07,45,3.20
2014,04,10,07,46,3.30
2014,04,10,07,47,3.30
2014,04,10,07,48,3.40
2014,04,10,07,49,3.50
2014,04,10,07,50,3.60
2014,04,10,07,51,3.70
2014,04,10,07,52,3.80
2014,04,10,07,53,3.90
2014,04,10,07,54,4.00
2014,04,10,07,55,4.00
2014,04,10,07,56,4.10
2014,04,10,07,57,4.20
2014,04,10,07,58,4.20
2014,04,10,07,59,4.30
2014,04,10,08,00,4.40
2014,04,10,08,01,4.50
2014,04,10,08,02,4.60
2014,04,10,08,03,4.70
2014,04,10,08,04,4.90
2014,04,10,08,05,5.00
2014,04,10,08,06,5.10
2014,04,10,08,07,5.20
2014,04,10,08,08,5.30
2014,04,10,08,09,5.30
2014,04,10,08,10,5.40
2014,04,10,08,11,5.50
2014,04,10,08,12,5.60
2014,04,10,08,13,5.70
2014,04,10,08,14,5.70
2014,04,10,08,15,5.80
2014,04,10,08,16,5.90
2014,04,10,08,17,6.00
2014,04,10,08,18,6.00
2014,04,10,08,19,6.10
2014,04,10,08,20,6.20
2014,04,10,08,21,6.30
2014,04,10,08,22,6.40
2014,04,10,08,23,6.50
2014,04,10,08,24,6.60
2014,04,10,08,25,6.60
2014,04,10,08,26,6.70
2014,04,10,08,27,6.70
2014,04,10,08,28,6.80
2014,04,10,08,29,6.80
2014,04,10,08,30,6.80
2014,04,10,08,31,6.80
2014,04,10,08,32,6.80
2014,04,10,08,33,6.80
2014,04,10,08,34,6.90
2014,04,10,08,35,7.00
2014,04,10,08,36,7.10
2014,04,10,08,37,7.20
2014,04,10,08,38,7.30
2014,04,10,08,39,7.30
2014,04,10,08,40,7.50
2014,04,10,08,41,7.60
2014,04,10,08,42,7.70
2014,04,10,08,43,7.70
2014,04,10,08,44,7.80
2014,04,10,08,45,7.90
2014,04,10,08,46,8.00
2014,04,10,08,47,8.00
2014,04,10,08,48,8.10
2014,04,10,08,49,8.20
2014,04,10,08,50,8.20
2014,04,10,08,51,8.20
2014,04,10,08,52,8.30
2014,04,10,08,53,8.40
2014,04,10,08,54,8.50
2014,04,10,08,55,8.60
2014,04,10,08,56,8.70
2014,04,10,08,57,8.80
2014,04,10,08,58,8.90
2014,04,10,08,59,8.90
2014,04,10,09,00,9.10
2014,04,10,09,01,9.20
2014,04,10,09,02,9.30
2014,04,10,09,03,9.40
2014,04,10,09,04,9.40
2014,04,10,09,05,9.50
2014,04,10,09,06,9.60
2014,04,10,09,07,9.70
2014,04,10,09,08,9.70
2014,04,10,09,09,9.80
2014,04,10,09,10,9.90
2014,04,10,09,11,9.90
2014,04,10,09,12,9.90
2014,04,10,09,13,9.80
2014,04,10,09,14,9.70
2014,04,10,09,15,9.70
2014,04,10,09,16,9.60
2014,04,10,09,17,9.60
2014,04,10,09,18,9.60
2014,04,10,09,19,9.60
2014,04,10,09,20,9.60
2014,04,10,09,21,9.70
2014,04,10,09,22,9.70
2014,04,10,09,23,9.70
2014,04,10,09,24,9.80
2014,04,10,09,25,9.90
2014,04,10,09,26,9.90
2014,04,10,09,27,10.00
2014,04,10,09,28,10.10
2014,04,10,09,29,10.20
2014,04,10,09,30,10.30
2014,04,10,09,31,10.40
2014,04,10,09,32,10.40
2014,04,10,09,33,10.30
2014,04,10,09,34,10.30
2014,04,10,09,35,10.30
2014,04,10,09,36,10.20
2014,04,10,09,37,10.20
2014,04,10,09,38,10.10
2014,04,10,09,39,10.10
2014,04,10,09,40,10.20
2014,04,10,09,41,10.20
2014,04,10,09,42,10.30
2014,04,10,09,43,10.40
2014,04,10,09,44,10.40
2014,04,10,09,45,10.40
2014,04,10,09,46,10.50
2014,04,10,09,47,10.70
2014,04,10,09,48,10.80
2014,04,10,09,49,10.90
2014,04,10,09,50,11.00
2014,04,10,09,51,11.10
2014,04,10,09,52,11.20
2014,04,10,09,53,11.30
2014,04,10,09,54,11.30
2014,04,10,09,55,11.30
2014,04,10,09,56,11.30
2014,04,10,09,57,11.30
2014,04,10,09,58,11.30
2014,04,10,09,59,11.30
2014,04,10,10,00,11.20
2014,04,10,10,01,11.20
2014,04,10,10,02,11.20
2014,04,10,10,03,11.20
2014,04,10,10,04,11.20
2014,04,10,10,05,11.20
2014,04,10,10,06,11.20
2014,04,10,10,07,11.20
2014,04,10,10,08,11.30
2014,04,10,10,09,11.40
2014,04,10,10,10,11.50
2014,04,10,10,11,11.60
2014,04,10,10,12,11.70
2014,04,10,10,13,11.90
2014,04,10,10,14,12.10
2014,04,10,10,15,12.30
2014,04,10,10,16,12.50
2014,04,10,10,17,12.60
2014,04,10,10,18,12.70
2014,04,10,10,19,12.60
2014,04,10,10,20,12.50
2014,04,10,10,21,12.50
2014,04,10,10,22,12.50
2014,04,10,10,23,12.60
2014,04,10,10,24,12.60
2014,04,10,10,25,12.60
2014,04,10,10,26,12.70
2014,04,10,10,27,12.70
2014,04,10,10,28,12.80
2014,04,10,10,29,12.90
2014,04,10,10,30,13.00
2014,04,10,10,31,13.00
2014,04,10,10,32,13.10
2014,04,10,10,33,13.10
2014,04,10,10,34,13.10
2014,04,10,10,35,13.00
2014,04,10,10,36,13.00
2014,04,10,10,37,12.90
2014,04,10,10,38,12.90
2014,04,10,10,39,12.90
2014,04,10,10,40,13.00
2014,04,10,10,41,13.00
2014,04,10,10,42,13.00
2014,04,10,10,43,13.00
2014,04,10,10,44,13.00
2014,04,10,10,45,13.10
2014,04,10,10,46,13.10
2014,04,10,10,47,13.00
2014,04,10,10,48,13.00
2014,04,10,10,49,13.00
2014,04,10,10,50,13.00
2014,04,10,10,51,13.00
2014,04,10,10,52,13.00
2014,04,10,10,53,13.00
2014,04,10,10,54,13.00
2014,04,10,10,55,13.00
2014,04,10,10,56,13.10
2014,04,10,10,57,13.10
2014,04,10,10,58,13.10
2014,04,10,10,59,13.10
2014,04,10,11,00,13.10
2014,04,10,11,01,13.20
2014,04,10,11,02,13.20
2014,04,10,11,03,13.10
2014,04,10,11,04,13.10
2014,04,10,11,05,13.20
2014,04,10,11,06,13.30
2014,04,10,11,07,13.30
2014,04,10,11,08,13.30
2014,04,10,11,09,13.20
2014,04,10,11,10,13.20
2014,04,10,11,11,13.20
2014,04,10,11,12,13.30
2014,04,10,11,13,13.30
2014,04,10,11,14,13.30
2014,04,10,11,15,13.30
2014,04,10,11,16,13.30
2014,04,10,11,17,13.30
2014,04,10,11,18,13.30
2014,04,10,11,19,13.30
2014,04,10,11,20,13.30
2014,04,10,11,21,13.30
2014,04,10,11,22,13.20
2014,04,10,11,23,13.00
2014,04,10,11,24,12.90
2014,04,10,11,25,12.90
2014,04,10,11,26,12.80
2014,04,10,11,27,12.70
2014,04,10,11,28,12.60
2014,04,10,11,29,12.50
2014,04,10,11,30,12.50
2014,04,10,11,31,12.60
2014,04,10,11,32,12.50
2014,04,10,11,33,12.60
2014,04,10,11,34,12.60
2014,04,10,11,35,12.70
2014,04,10,11,36,12.70
2014,04,10,11,37,12.70
2014,04,10,11,38,12.80
2014,04,10,11,39,12.90
2014,04,10,11,40,12.90
2014,04,10,11,41,12.90
2014,04,10,11,42,12.80
2014,04,10,11,43,12.80
2014,04,10,11,44,12.80
2014,04,10,11,45,12.80
2014,04,10,11,46,12.90
2014,04,10,11,47,13.00
2014,04,10,11,48,13.10
2014,04,10,11,49,13.20
2014,04,10,11,50,13.30
2014,04,10,11,51,13.30
2014,04,10,11,52,13.30
2014,04,10,11,53,13.30
2014,04,10,11,54,13.30
2014,04,10,11,55,13.40
2014,04,10,11,56,13.40
2014,04,10,11,57,13.40
2014,04,10,11,58,13.40
2014,04,10,11,59,13.50
2014,04,10,12,00,13.50
2014,04,10,12,01,13.50
2014,04,10,12,02,13.60
2014,04,10,12,03,13.60
2014,04,10,12,04,13.70
2014,04,10,12,05,13.60
2014,04,10,12,06,13.50
2014,04,10,12,07,13.60
2014,04,10,12,08,13.60
2014,04,10,12,09,13.60
2014,04,10,12,10,13.60
2014,04,10,12,11,13.60
2014,04,10,12,12,13.60
2014,04,10,12,13,13.60
2014,04,10,12,14,13.50
2014,04,10,12,15,13.50
2014,04,10,12,16,13.50
2014,04,10,12,17,13.60
2014,04,10,12,18,13.60
2014,04,10,12,19,13.50
2014,04,10,12,20,13.50
2014,04,10,12,21,13.50
2014,04,10,12,22,13.50
2014,04,10,12,23,13.60
2014,04,10,12,24,13.60
2014,04,10,12,25,13.60
2014,04,10,12,26,13.60
2014,04,10,12,27,13.60
2014,04,10,12,28,13.70
2014,04,10,12,29,13.70
2014,04,10,12,30,13.70
2014,04,10,12,31,13.70
2014,04,10,12,32,13.70
2014,04,10,12,33,13.70
2014,04,10,12,34,13.50
2014,04,10,12,35,13.40
2014,04,10,12,36,13.40
2014,04,10,12,37,13.40
2014,04,10,12,38,13.40
2014,04,10,12,39,13.50
2014,04,10,12,40,13.60
2014,04,10,12,41,13.70
2014,04,10,12,42,13.80
2014,04,10,12,43,13.90
2014,04,10,12,44,14.00
2014,04,10,12,45,13.90
2014,04,10,12,46,13.90
2014,04,10,12,47,13.90
2014,04,10,12,48,13.90
2014,04,10,12,49,13.90
2014,04,10,12,50,13.80
2014,04,10,12,51,13.70
2014,04,10,12,52,13.50
2014,04,10,12,53,13.50
2014,04,10,12,54,13.40
2014,04,10,12,55,13.30
2014,04,10,12,56,13.30
2014,04,10,12,57,13.40
2014,04,10,12,58,13.50
2014,04,10,12,59,13.70
2014,04,10,13,00,13.70
2014,04,10,13,01,13.70
2014,04,10,13,02,13.80
2014,04,10,13,03,14.00
2014,04,10,13,04,14.20
2014,04,10,13,05,14.30
2014,04,10,13,06,14.50
2014,04,10,13,07,14.50
2014,04,10,13,08,14.60
2014,04,10,13,09,14.80
2014,04,10,13,10,15.00
2014,04,10,13,11,14.90
2014,04,10,13,12,14.90
2014,04,10,13,13,14.90
2014,04,10,13,14,14.90
2014,04,10,13,15,15.00
2014,04,10,13,16,14.90
2014,04,10,13,17,14.90
2014,04,10,13,18,14.70
2014,04,10,13,19,14.60
2014,04,10,13,20,14.50
2014,04,10,13,21,14.50
2014,04,10,13,22,14.70
2014,04,10,13,23,14.90
2014,04,10,13,24,15.10
2014,04,10,13,25,15.20
2014,04,10,13,26,15.20
2014,04,10,13,27,15.20
2014,04,10,13,28,15.10
2014,04,10,13,29,14.80
2014,04,10,13,30,14.70
2014,04,10,13,31,14.60
2014,04,10,13,32,14.70
2014,04,10,13,33,14.70
2014,04,10,13,34,14.70
2014,04,10,13,35,14.80
2014,04,10,13,36,14.70
2014,04,10,13,37,14.70
2014,04,10,13,38,14.60
2014,04,10,13,39,14.50
2014,04,10,13,40,14.40
2014,04,10,13,41,14.30
2014,04,10,13,42,14.30
2014,04,10,13,43,14.10
2014,04,10,13,44,14.10
2014,04,10,13,45,14.00
2014,04,10,13,46,14.00
2014,04,10,13,47,14.00
2014,04,10,13,48,13.80
2014,04,10,13,49,13.60
2014,04,10,13,50,13.50
2014,04,10,13,51,13.20
2014,04,10,13,52,13.10
2014,04,10,13,53,13.00
2014,04,10,13,54,12.80
2014,04,10,13,55,12.80
2014,04,10,13,56,12.70
2014,04,10,13,57,12.80
2014,04,10,13,58,12.80
2014,04,10,13,59,12.80
2014,04,10,14,00,12.80
2014,04,10,14,01,12.80
2014,04,10,14,02,12.90
2014,04,10,14,03,13.00
2014,04,10,14,04,13.00
2014,04,10,14,05,12.80
2014,04,10,14,06,12.80
2014,04,10,14,07,12.80
2014,04,10,14,08,12.90
2014,04,10,14,09,12.90
2014,04,10,14,10,12.90
2014,04,10,14,11,12.90
2014,04,10,14,12,13.00
2014,04,10,14,13,13.00
2014,04,10,14,14,13.00
2014,04,10,14,15,13.00
2014,04,10,14,16,13.10
2014,04,10,14,17,13.20
2014,04,10,14,18,13.20
2014,04,10,14,19,13.30
2014,04,10,14,20,13.40
2014,04,10,14,21,13.40
2014,04,10,14,22,13.50
2014,04,10,14,23,13.50
2014,04,10,14,24,13.50
2014,04,10,14,25,13.50
2014,04,10,14,26,13.40
2014,04,10,14,27,13.40
2014,04,10,14,28,13.50
2014,04,10,14,29,13.60
2014,04,10,14,30,13.60
2014,04,10,14,31,13.60
2014,04,10,14,32,13.70
2014,04,10,14,33,13.70
2014,04,10,14,34,13.70
2014,04,10,14,35,13.50
2014,04,10,14,36,13.40
2014,04,10,14,37,13.40
2014,04,10,14,38,13.40
2014,04,10,14,39,13.30
2014,04,10,14,40,13.40
2014,04,10,14,41,13.40
2014,04,10,14,42,13.40
2014,04,10,14,43,13.50
2014,04,10,14,44,13.60
2014,04,10,14,45,13.60
2014,04,10,14,46,13.60
2014,04,10,14,47,13.60
2014,04,10,14,48,13.60
2014,04,10,14,49,13.60
2014,04,10,14,50,13.40
2014,04,10,14,51,13.30
2014,04,10,14,52,13.40
2014,04,10,14,53,13.40
2014,04,10,14,54,13.50
2014,04,10,14,55,13.60
2014,04,10,14,56,13.60
2014,04,10,14,57,13.60
2014,04,10,14,58,13.70
2014,04,10,14,59,13.80
2014,04,10,15,00,13.80
2014,04,10,15,01,13.90
2014,04,10,15,02,14.00
2014,04,10,15,03,14.00
2014,04,10,15,04,14.10
2014,04,10,15,05,14.20
2014,04,10,15,06,14.20
2014,04,10,15,07,14.30
2014,04,10,15,08,14.20
2014,04,10,15,09,14.20
2014,04,10,15,10,14.10
2014,04,10,15,11,14.10
2014,04,10,15,12,14.00
2014,04,10,15,13,13.90
2014,04,10,15,14,13.80
2014,04,10,15,15,13.80
2014,04,10,15,16,13.80
2014,04,10,15,17,13.70
2014,04,10,15,18,13.60
2014,04,10,15,19,13.70
2014,04,10,15,20,13.70
2014,04,10,15,21,13.80
2014,04,10,15,22,13.70
2014,04,10,15,23,13.70
2014,04,10,15,24,13.70
2014,04,10,15,25,13.80
2014,04,10,15,26,13.80
2014,04,10,15,27,13.90
2014,04,10,15,28,13.90
2014,04,10,15,29,13.80
2014,04,10,15,30,13.70
2014,04,10,15,31,13.70
2014,04,10,15,32,13.60
2014,04,10,15,33,13.60
2014,04,10,15,34,13.60
2014,04,10,15,35,13.70
2014,04,10,15,36,13.70
2014,04,10,15,37,13.70
2014,04,10,15,38,13.70
2014,04,10,15,39,13.70
2014,04,10,15,40,13.70
2014,04,10,15,41,13.70
2014,04,10,15,42,13.70
2014,04,10,15,43,13.70
2014,04,10,15,44,13.70
2014,04,10,15,45,13.70
2014,04,10,15,46,13.70
2014,04,10,15,47,13.70
2014,04,10,15,48,13.70
2014,04,10,15,49,13.70
2014,04,10,15,50,13.70
2014,04,10,15,51,13.70
2014,04,10,15,52,13.70
2014,04,10,15,53,13.70
2014,04,10,15,54,13.70
2014,04,10,15,55,13.70
2014,04,10,15,56,13.70
2014,04,10,15,57,13.70
2014,04,10,15,58,13.70
2014,04,10,15,59,13.70
2014,04,10,16,00,13.80
2014,04,10,16,01,13.80
2014,04,10,16,02,13.80
2014,04,10,16,03,13.70
2014,04,10,16,04,13.70
2014,04,10,16,05,13.70
2014,04,10,16,06,13.70
2014,04,10,16,07,13.80
2014,04,10,16,08,13.90
2014,04,10,16,09,14.00
2014,04,10,16,10,14.00
2014,04,10,16,11,13.90
2014,04,10,16,12,14.00
2014,04,10,16,13,14.00
2014,04,10,16,14,13.90
2014,04,10,16,15,13.90
2014,04,10,16,16,13.90
2014,04,10,16,17,13.80
2014,04,10,16,18,13.70
2014,04,10,16,19,13.70
2014,04,10,16,20,13.70
2014,04,10,16,21,13.70
2014,04,10,16,22,13.70
2014,04,10,16,23,13.70
2014,04,10,16,24,13.90
2014,04,10,16,25,13.90
2014,04,10,16,26,14.00
2014,04,10,16,27,14.00
2014,04,10,16,28,14.00
2014,04,10,16,29,14.00
2014,04,10,16,30,14.00
2014,04,10,16,31,14.00
2014,04,10,16,32,14.00
2014,04,10,16,33,14.00
2014,04,10,16,34,13.90
2014,04,10,16,35,13.80
2014,04,10,16,36,13.80
2014,04,10,16,37,13.80
2014,04,10,16,38,13.80
2014,04,10,16,39,13.80
2014,04,10,16,40,13.80
2014,04,10,16,41,13.80
2014,04,10,16,42,13.90
2014,04,10,16,43,13.80
2014,04,10,16,44,13.70
2014,04,10,16,45,13.60
2014,04,10,16,46,13.70
2014,04,10,16,47,13.70
2014,04,10,16,48,13.60
2014,04,10,16,49,13.50
2014,04,10,16,50,13.50
2014,04,10,16,51,13.60
2014,04,10,16,52,13.60
2014,04,10,16,53,13.60
2014,04,10,16,54,13.60
2014,04,10,16,55,13.60
2014,04,10,16,56,13.60
2014,04,10,16,57,13.60
2014,04,10,16,58,13.60
2014,04,10,16,59,13.60
2014,04,10,17,00,13.70
2014,04,10,17,01,13.70
2014,04,10,17,02,13.70
2014,04,10,17,03,13.70
2014,04,10,17,04,13.70
2014,04,10,17,05,13.70
2014,04,10,17,06,13.70
2014,04,10,17,07,13.70
2014,04,10,17,08,13.70
2014,04,10,17,09,13.70
2014,04,10,17,10,13.70
2014,04,10,17,11,13.70
2014,04,10,17,12,13.70
2014,04,10,17,13,13.70
2014,04,10,17,14,13.60
2014,04,10,17,15,13.60
2014,04,10,17,16,13.70
2014,04,10,17,17,13.70
2014,04,10,17,18,13.60
2014,04,10,17,19,13.60
2014,04,10,17,20,13.60
2014,04,10,17,21,13.60
2014,04,10,17,22,13.70
2014,04,10,17,23,13.70
2014,04,10,17,24,13.70
2014,04,10,17,25,13.70
2014,04,10,17,26,13.70
2014,04,10,17,27,13.70
2014,04,10,17,28,13.70
2014,04,10,17,29,13.70
2014,04,10,17,30,13.80
2014,04,10,17,31,13.90
2014,04,10,17,32,13.90
2014,04,10,17,33,14.00
2014,04,10,17,34,14.00
2014,04,10,17,35,14.10
2014,04,10,17,36,14.00
2014,04,10,17,37,14.00
2014,04,10,17,38,14.00
2014,04,10,17,39,14.00
2014,04,10,17,40,14.00
2014,04,10,17,41,13.90
2014,04,10,17,42,13.80
2014,04,10,17,43,13.70
2014,04,10,17,44,13.70